This is the latest recevied weather packets stored in our database for station/object KD5VOO. If no packets are shown the sender has not sent any weather packets the latest 10 day(s).
| Time | Temp. | Humidity | Pressure | Rain* | Wind** | Luminosity | Snow |
|---|---|---|---|---|---|---|---|
| 1777577826 | 23.89° C | 73% | 1008.2 hPa | 0 mm | - | 63 W/m² | - |
| 1777577219 | 23.89° C | 73% | 1008.2 hPa | 0 mm | - | 79 W/m² | - |
| 1777576306 | 23.89° C | 73% | 1008.2 hPa | 0 mm | - | 82 W/m² | - |
| 1777575394 | 23.89° C | 73% | 1008.5 hPa | 0 mm | - | 86 W/m² | - |
| 1777575091 | 23.89° C | 73% | 1008.5 hPa | 0 mm | - | 60 W/m² | - |
| 1777572963 | 23.89° C | 72% | 1008.2 hPa | 0 mm | - | 101 W/m² | - |
| 1777572659 | 23.89° C | 73% | 1008.2 hPa | 0 mm | - | 90 W/m² | - |
| 1777572359 | 23.89° C | 73% | 1008.5 hPa | 0 mm | - | 101 W/m² | - |
| 1777570541 | 23.33° C | 72% | 1008.8 hPa | 0 mm | - | 154 W/m² | - |
| 1777570238 | 23.33° C | 73% | 1009.2 hPa | 0 mm | - | 107 W/m² | - |
| 1777569933 | 23.33° C | 73% | 1009.2 hPa | 0 mm | - | 130 W/m² | - |
| 1777569326 | 23.33° C | 73% | 1009.2 hPa | 0 mm | - | 114 W/m² | - |
| 1777569022 | 23.33° C | 73% | 1009.2 hPa | 0 mm | - | 84 W/m² | - |
| 1777568719 | 23.33° C | 73% | 1009.2 hPa | 0 mm | - | 86 W/m² | - |
| 1777568417 | 23.33° C | 73% | 1009.5 hPa | 0 mm | - | 76 W/m² | - |
| 1777568114 | 23.33° C | 73% | 1009.5 hPa | 0 mm | - | 49 W/m² | - |
| 1777565695 | 21.67° C | 77% | 1009.9 hPa | 0 mm | - | 132 W/m² | - |
| 1777564784 | 21.11° C | 77% | 1009.5 hPa | 0 mm | - | 125 W/m² | - |
| 1777564479 | 21.11° C | 77% | 1009.5 hPa | 0 mm | - | 114 W/m² | - |
| 1777564175 | 20.56° C | 78% | 1008.8 hPa | 0 mm | - | 80 W/m² | - |
| 1777563567 | 20.56° C | 78% | 1009.5 hPa | 0 mm | - | 48 W/m² | - |
| 1777563266 | 20.56° C | 78% | 1009.9 hPa | 0 mm | - | 38 W/m² | - |
| 1777562964 | 20.56° C | 78% | 1009.9 hPa | 0 mm | - | 43 W/m² | - |
| 1777562660 | 20.56° C | 78% | 1009.9 hPa | 0 mm | - | 47 W/m² | - |
| 1777562360 | 20° C | 78% | 1010.2 hPa | 0 mm | - | 82 W/m² | - |
* Rain latest hour (hover to see other rain measurements)
** Current wind speed in m/s (hover to see current wind gust speed)